Weather Roundup
Issued by NWS Springfield, MO

Home | Current Version | Previous Version | Text Only | Print | Product List | Glossary On
Versions: 1 2 3 4 5 6 7 8 9 10 11 12 13 14 15 16 17 18 19 20 21 22 23 24 25 26 27 28 29 30 31 32 33 34 35 36 37 38 39 40 41 42 43 44 45 46 47 48 49 50
000
NZUS99 KSGF 261707
HRRSGF

HOURLY WEATHER
NATIONAL WEATHER SERVICE SPRINGFIELD MO
1200 PM CDT MON SEP 26 2016

......SGF CWA......

CITY           SKY/WX    TMP DP  RH WIND       PRES   REMARKS
SPRINGFIELD    SUNNY     69  42  37 N10G23    30.25F
JOPLIN         SUNNY     69  46  43 NE7       30.28F
WEST PLAINS    MOSUNNY   70  47  43 NE10      30.23F
ROLLA          SUNNY     67  44  43 NW10      30.20F
OSAGE BEACH    SUNNY     67  43  41 NW7       30.24F
BRANSON        MOSUNNY   68  48  49 N14       30.26S

......SURROUNDING SGF CWA......

CITY           SKY/WX    TMP DP  RH WIND       PRES   REMARKS
CHANUTE        SUNNY     70  40  33 VRB6      30.29F
PARSONS        SUNNY     71  37  28 N9        30.30F
COFFEYVILLE    SUNNY     71  37  28 NE13      30.29F
EMPORIA        SUNNY     69  37  30 N8        30.30F
GROVE OK       SUNNY     70  50  49 N6        30.28S
ROGERS AR      SUNNY     68  49  50 N10       30.27S
SILOAM SPRINGS SUNNY     70  46  43 NE8       30.26S
HARRISON AR    CLOUDY    69  48  47 N9        30.24F
NEAR YELLVILLE PTSUNNY   72  52  49 N12       30.20F

......KANSAS AND MISSOURI......

CITY           SKY/WX    TMP DP  RH WIND       PRES   REMARKS
KANSAS CTY INT SUNNY     68  39  34 VRB5      30.26F
DOWNTOWN KC    SUNNY     70  40  33 W7        30.26F
COLUMBIA       SUNNY     69  38  32 NW14      30.22F
SEDALIA        SUNNY     71  36  27 N16       30.25F
ST JOSEPH      SUNNY     70  36  28 NW8G20    30.25F
ST LOUIS       MOSUNNY   71  39  31 NW14G21   30.17F
SPIRIT OF STL  MOSUNNY   70  43  37 NW8       30.17F
KIRKSVILLE     SUNNY     68  40  35 NW12G21   30.20F
WICHITA        MOSUNNY   71  38  29 N8        30.32F
TOPEKA         SUNNY     68  45  43 SW6       30.28F
OLATHE         SUNNY     68  39  34 N7        30.28F

......TENNESSEE......

CITY           SKY/WX    TMP DP  RH WIND       PRES   REMARKS
MEMPHIS        PTSUNNY   73  60  63 N15       30.14S
NASHVILLE      PTSUNNY   78  60  53 N10G24    30.11F

......ARKANSAS.......

CITY           SKY/WX    TMP DP  RH WIND       PRES   REMARKS
FAYETTEVILLE   SUNNY     69  49  48 NE10      30.25S
FT SMITH       PTSUNNY   72  51  47 E6        30.22F
LITTLE ROCK    CLOUDY    73  49  42 N17G29    30.18F

......OKLAHOMA.......

CITY           SKY/WX    TMP DP  RH WIND       PRES   REMARKS
TULSA          PTSUNNY   73  45  36 N12G18    30.26F
PONCA CITY     SUNNY     73  35  25 NE9       30.30F HAZE
MCALESTER      PTSUNNY   72  53  51 NE10G20   30.24F
OKLAHOMA CITY  PTSUNNY   71  40  32 NE16G25   30.29F

......IOWA............

CITY           SKY/WX    TMP DP  RH WIND       PRES   REMARKS
DES MOINES     MOSUNNY   69  39  33 NW14      30.14F
QUAD CITIES    SUNNY     68  34  28 W20G30    30.06F

......ILLINOIS........

CITY           SKY/WX    TMP DP  RH WIND       PRES   REMARKS
QUINCY         SUNNY     69  34  27 W17G23    30.16F
CHICAGO        MOSUNNY   67  37  33 W20G36    29.97F



USA.gov is the U.S. government's official web portal to all federal, state and local government web resources and services.